FREGAT DEB (TANK), 41108

Orbit data source: Space-Track

FREGAT DEB (TANK), 41108 is space debris in LEO originally from a launch on Fri, 11 Dec 2015 UTC launched from the Tyuratam Missile And Space Complex (TTMTR). Debris objects in space refer to the collection of defunct objects orbiting the Earth. Examples of debris include non-operational satellites, rocket bodies, and fragments generated from explosions, collisions, or faulty payload assembly.

Loading next visibility...
Identifier
41108, 2015-074D
Orbit
LEO
Country
Flag of CISCIS
Related business
Manufacturer
Lavochkin
Mission
Spacecraft
Bus & Motor
FREGAT SBB, Unknown motor
Mass
360 kg wet, 360 kg dry
Launch date (UTC)
2015-12-11 (11 years ago)
Launch vehicle
Unknown
Launch site
Tyuratam Missile And Space Complex (TTMTR)
Object type
Payload
Rocket body
Debris
Shape & HBR
Torus, 2.0 m
Radar Cross Section
6.703 m², Large (>1 m²)

Expand to show TLE details & history
Last TLE update: 10 hours ago

TLE from 10 hours ago
0 FREGAT DEB (TANK)
1 41108U 15074D   26267.18799646  .00060999  66134-5  68564-3 0  9994
2 41108  50.2837  71.4869 1010980 236.1216 113.9485 13.70862916463474
Epoch: 2026-09-24T04:30Z
TLE epoch observation values (Epoch: 2026-09-24T04:30:42.894Z)
Latitude
-0.00002°
Longitude
0.7798°
Altitude
1,358.583 km
Speed
7.002 km/s
True Right ascension
04h 45m 56s
True Declination
0° 00' 00"
Sunlit
Object was in daylight at epoch
Visualization orbit readout
Latitude
Unknown
Longitude
Unknown
Altitude
Unknown
Speed
Unknown
Apparent Right ascension
Unknown
Apparent Declination
Unknown
Sunlit
N/A
Visualization observer readout
Local Sidereal Time
07:44:00
Azimuth
Unknown
Elevation
Unknown
Doppler factor
Unknown
Orbital elements
Apogee altitude
1,742.789 km
Perigee altitude
251.533 km
Semi-major axis
7,375.298 km
Eccentricity
0.1011
Inclination
50.2837°
RAAN
71.4869°
Arg. of periapsis
236.1216°
True anomaly
123.96766°
Mean anomaly
113.9485°
Eccentric anomaly
119.01404°
Mean motion
3.42668 °/min
Orbital period
105.06 mins
BSTAR
0.00068564
Loading maneuver chart data...
Computing Atmospheric mass density...
Loading historical data...
Loading historical data...
Loading historical data...
Loading historical data...
Loading historical data...
Loading historical data...
Loading historical data...

Documentation

Showing up to 5 results
|